Home > Weather > Longyearbyen > Past weeks

Flag for Norway Weather for the Past 2 Weeks in Longyearbyen, Svalbard, Norway

Now
12 °F

Passing clouds.


Feels Like: -5 °F
Forecast: 8 / 12 °F
Wind: 17 mph from Southeast

Location: Svalbard Lufthavn

Current Time: Feb 7, 2016 at 12:21:27 AM

Latest Report: Feb 6, 2016 at 10:50 PM


Visibility: N/A

Pressure: 29.65 "Hg

Humidity: 67%

Dew point: 3 °F

Location of LongyearbyenLocation

Historic Weather in Longyearbyen — Graph

°F

Longyearbyen Temperature Yesterday

Maximum temperature yesterday: 18 °F (at 12:50 AM)
Minimum temperature yesterday: 9 °F (at 2:50 PM)
Average temperature yesterday: 13 °F

High & Low Weather Summary for the Past Weeks

 TemperatureHumidityPressure
High39 °F (Jan 24, 10:50 AM)93% (Jan 22, 10:50 PM)29.92 "Hg (Jan 22, 10:50 PM)
Low9 °F (Feb 6, 2:50 PM)53% (Feb 3, 11:20 AM)28.88 "Hg (Jan 29, 6:50 AM)
Average24 °F69%29.46 "Hg
* Reported Jan 22 9:20 PM — Feb 6 9:50 PM, Longyearbyen, Weather by CustomWeather, © 2016

Note: Actual official high and low records may vary slightly from our data, if they occured in-between our weather recording intervals... More about our weather records

Advertising

Longyearbyen Weather History for the Previous 24 Hours

 ConditionsComfort  
Time TempWeatherWind HumidityBarometerVisibility
9:50 PM
Sat, Feb 6
12 °FPassing clouds.14 mph67%29.65 "HgN/A
8:50 PM12 °FPassing clouds.15 mph67%29.65 "HgN/A
7:50 PM12 °FPassing clouds.16 mph62%29.65 "HgN/A
6:50 PM14 °FPassing clouds.14 mph62%29.65 "HgN/A
5:50 PM14 °FPartly sunny.12 mph62%29.65 "HgN/A
4:50 PM10 °FPartly sunny.10 mph72%29.65 "HgN/A
3:50 PM10 °FScattered clouds.9 mph67%29.65 "HgN/A
2:50 PM9 °FPassing clouds.10 mph72%29.65 "HgN/A
1:50 PM10 °FPassing clouds.12 mph61%29.65 "HgN/A
12:50 PM10 °FPassing clouds.15 mph67%29.65 "HgN/A
11:50 AM12 °FPassing clouds.18 mph62%29.65 "HgN/A
10:50 AM10 °FPassing clouds.15 mph67%29.65 "HgN/A
9:50 AM10 °FPassing clouds.15 mph72%29.65 "HgN/A
8:50 AM12 °FSunny.15 mph62%29.65 "Hg10 mi
7:50 AM12 °FSunny.18 mph62%29.65 "Hg10 mi
6:50 AM12 °FPassing clouds.15 mph62%29.65 "HgN/A
6:20 AM12 °FScattered clouds.10 mph67%29.65 "HgN/A
4:50 AM16 °FPassing clouds.13 mph62%29.65 "HgN/A
3:50 AM16 °FPassing clouds.13 mph62%29.65 "HgN/A
1:50 AM18 °FPassing clouds.6 mph62%29.68 "HgN/A
12:50 AM18 °FPartly sunny.8 mph68%29.68 "HgN/A
Weather by CustomWeather, © 2016

See weather overviewHow to use our weather pages